Saltar para o conteúdo principal

Loulé (CML)

ID 6210872 · 37.1299, -8.0652 mapa

Última leitura · 2026-05-09 18:00 (Europe/Lisbon)

Temperatura
Humidade
Pressão
1,010.8 hPa
Precipitação
1.0 mm
Radiação
Velocidade do vento
9.4 km/h
Direcção do vento
SW · Sudoeste

Histórico de 24 horas

Hora (Europe/Lisbon) Temperatura Humidade Pressão Chuva Vento Direcção
2026-05-09 18:00 1,010.8 1.0 mm 9.4 km/h SW
2026-05-09 17:00 1,010.2 0.0 mm 19.1 km/h SW
2026-05-09 16:00 1,009.9 0.0 mm 20.5 km/h SW
2026-05-09 15:00 1,009.4 0.4 mm 22.3 km/h SW
2026-05-09 14:00 1,009.4 0.6 mm 15.5 km/h SW
2026-05-09 13:00 1,009.0 0.0 mm 19.4 km/h SW
2026-05-09 12:00 1,008.3 0.0 mm 16.9 km/h SW
2026-05-09 11:00 1,007.4 0.0 mm 19.4 km/h SW
2026-05-09 10:00 1,006.4 0.0 mm 19.1 km/h W
2026-05-09 09:00 1,005.6 0.0 mm 18.0 km/h SW
2026-05-09 08:00 1,005.2 3.8 mm 27.4 km/h S
2026-05-09 07:00 1,005.3 0.6 mm 12.6 km/h SE
2026-05-09 06:00 1,005.5 0.0 mm 12.6 km/h S
2026-05-09 05:00 1,005.8 0.2 mm 16.2 km/h S
2026-05-09 04:00 1,006.4 0.0 mm 14.0 km/h S
2026-05-09 03:00 1,007.1 0.0 mm 14.0 km/h S
2026-05-09 02:00 1,007.7 20.1 mm 6.5 km/h NW
2026-05-09 01:00 1,008.6 0.0 mm 7.2 km/h SE
2026-05-09 00:00 1,009.2 0.0 mm 6.1 km/h SE
2026-05-08 23:00 1,009.6 1.0 mm 6.1 km/h SE
2026-05-08 22:00 1,009.5 4.0 mm 5.8 km/h SE
2026-05-08 21:00 1,008.9 0.0 mm 14.8 km/h SE
2026-05-08 20:00 1,008.9 0.0 mm 8.3 km/h S
2026-05-08 19:00 1,009.1 0.0 mm 12.6 km/h SW